Location: *
(35.2348°S, 91.3916°E)
Time: 22:52:25
(UTC+00:00)

Nadezhda 1 Rocket - Pass Details

Date: 23 October 2019
Orbit: 942 x 1004 km, 83.0° (Epoch: 16 November)

Event Time Altitude Azimuth Distance (km) Brightness Sun altitude
Exits shadow 20:45:30 30° 14° (NNE) 1,677 5.0 -25.7°
Maximum altitude 20:48:41 67° 87° (E) 1,055 4.2 -25.2°
Drops below altitude 10° 20:54:51 10° 168° (SSE) 2,721 6.9 -24.2°
Sets 20:57:22 0° 170° (S) 3,666 7.7 -23.8°
